Location: *
(45.8589°N, 4.7139°E)
Time: 20:16:58
(UTC+00:00)

Cosmos 1980 Rocket - Pass Details

Date: 09 April 2020
Orbit: 829 x 850 km, 71.0° (Epoch: 25 May)

Event Time Altitude Azimuth Distance (km) Brightness Sun altitude
Rises 19:52:58 0° 342° (NNW) 3,387 6.1 -15.8°
Reaches altitude 10° 19:56:32 10° 5° (N) 2,453 4.9 -16.3°
Maximum altitude 19:59:46 15° 40° (NE) 2,095 4.2 -16.8°
Enters shadow 20:02:21 12° 70° (ENE) 2,327 4.1 -17.2°
